{"data":{"norad_id":65498,"intl_designator":"2025-198G","name":"STARLINK-35203","alt_names":[],"object_type":"PAYLOAD","status":"ACTIVE","operator":null,"country":"US","launch_date":"2025-09-05","launch_site_code":"AFETR","launch_vehicle":null,"mission":null,"orbit_class":"UNKNOWN","rcs_meters":null,"size_class":null,"mass_kg":null,"dimensions":null,"purposes":["comms"],"wikipedia_slug":null,"has_3d_model":false,"image_url":null,"decayed_at":null,"tle_current":{"epoch":"2026-05-24T19:58:57.802080Z","epoch_age_seconds":85651,"freshness":"FRESH","line1":"1 65498U 25198G   26144.83261345  .00017556  00000+0  60322-3 0  9995","line2":"2 65498  53.1599 277.6255 0001212  89.4533 270.6607 15.30212395 40270","mean_motion":15.30212395,"eccentricity":0.0001212,"inclination_deg":53.1599,"raan_deg":277.6255,"arg_perigee_deg":89.4533,"mean_anomaly_deg":270.6607,"bstar":0.00060322,"rev_number":4027,"period_min":94.104583435948,"perigee_km":474.34743864803,"apogee_km":476.00868221868,"semimajor_km":6853.3150604334,"source":"CELESTRAK","updated_at":"2026-05-25T13:38:20.840696Z"}}}